Flag for Saudi Arabia Weather past 2 weeks in Qatif, Saudi Arabia

Now
77 °F

Clear.


Feels Like: 78 °F
Forecast: 81 / 103 °F
Wind: No wind

Location: King Fahd International Airport

Current Time: Sep 21, 2014 at 6:03:01 AM

Latest Report: Sep 21, 2014 at 5:00 AM


Visibility: 10 mi

Pressure: 29.62 "Hg

Humidity: 36%

Dew point: 48 °F

Location of QatifLocation

Historic Weather in Qatif — Graph

°F

Qatif temperature yesterday

Maximum temperature yesterday: 108 °F (at 3:00 PM)
Minimum temperature yesterday: 77 °F (at 5:00 AM)
Average temperature yesterday: 90 °F

Past Weeks' High & Low Weather Summary

 TemperatureHumidityPressure
High115 °F (Sep 7, 2:00 PM)70% (Sep 16, 11:00 PM)29.83 "Hg (Sep 16, 11:00 PM)
Low77 °F (Sep 19, 3:00 AM)6% (Sep 7, 3:00 PM)29.50 "Hg (Sep 6, 3:00 PM)
Average94 °F28%29.64 "Hg
* Reported Sep 6 5:00 AM — Sep 21 5:00 AM, Qatif, Weather by CustomWeather, © 2014

Note: Actual official high and low records may vary slightly from our data, if they occured in-between our weather recording intervals... More about our weather records

Advertising

Qatif weather history for previous 24 hours

 ConditionsComfort  
Time TempWeatherWind HumidityBarometerVisibility
5:00 AM
Sep 21
77 °FClear.No wind36%29.62 "Hg10 mi
4:00 AM79 °FClear.3 mph39%29.62 "Hg10 mi
3:00 AM79 °FClear.3 mph45%29.62 "Hg10 mi
2:00 AM81 °FClear.6 mph42%29.62 "Hg10 mi
1:00 AM81 °FClear.7 mph51%29.62 "Hg10 mi
12:00 AM82 °FClear.6 mph48%29.65 "Hg10 mi
11:00 PM
Sep 20
82 °FClear.6 mph40%29.65 "Hg10 mi
10:00 PM86 °FClear.No wind43%29.68 "Hg10 mi
9:00 PM88 °FClear.3 mph43%29.68 "Hg10 mi
4:00 PM106 °FSunny.7 mph9%29.62 "Hg10 mi
3:00 PM108 °FSunny.8 mph8%29.62 "Hg10 mi
2:00 PM106 °FSunny.6 mph9%29.65 "Hg10 mi
1:00 PM106 °FSunny.7 mph11%29.65 "Hg10 mi
12:00 PM106 °FSunny.10 mph9%29.68 "Hg10 mi
11:00 AM106 °FSunny.10 mph11%29.68 "Hg10 mi
10:00 AM102 °FSunny.10 mph12%29.74 "Hg10 mi
9:00 AM97 °FSunny.12 mph14%29.74 "Hg10 mi
8:00 AM84 °FSunny.8 mph27%29.74 "Hg10 mi
7:00 AM79 °FSunny.9 mph34%29.74 "Hg10 mi
6:00 AM77 °FSunny.8 mph32%29.71 "Hg10 mi
Weather by CustomWeather, © 2014

See weather overviewHow to use our weather pages